Flag for Netherlands Weather past 2 weeks in Zoetermeer, Netherlands

Now
57 °F

Clear.


Feels Like: 57 °F
Forecast: 56 / 76 °F
Wind: 2 mph from South

Location: Rotterdam Zestienhoven Airport

Current Time: Aug 2, 2015 at 12:36:32 AM

Latest Report: Aug 1, 2015 at 11:25 PM


Visibility: N/A

Pressure: 30.07 "Hg

Humidity: 72%

Dew point: 48 °F

Location of ZoetermeerLocation

Historic Weather in Zoetermeer — Graph

°F

Zoetermeer temperature yesterday

Maximum temperature yesterday: 70 °F (at 1:25 PM)
Minimum temperature yesterday: 48 °F (at 5:25 AM)
Average temperature yesterday: 61 °F

Past Weeks' High & Low Weather Summary

 TemperatureHumidityPressure
High75 °F (Jul 21, 3:25 PM)100% (Jul 19, 7:55 AM)30.15 "Hg (Jul 19, 7:55 AM)
Low45 °F (Jul 31, 4:55 AM)40% (Jul 23, 2:55 PM)29.42 "Hg (Jul 25, 6:25 AM)
Average62 °F75%29.86 "Hg
* Reported Jul 17 10:25 PM — Aug 1 10:55 PM, Zoetermeer, Weather by CustomWeather, © 2015

Note: Actual official high and low records may vary slightly from our data, if they occured in-between our weather recording intervals... More about our weather records

Advertising

Zoetermeer weather history for previous 24 hours

 ConditionsComfort  
Time TempWeatherWind HumidityBarometerVisibility
10:55 PM
Sat, Aug 1
59 °FCool.3 mph63%30.07 "HgN/A
10:25 PM61 °FClear.5 mph59%30.07 "HgN/A
9:55 PM61 °FRefreshingly cool.3 mph59%30.04 "HgN/A
9:25 PM64 °FMild.3 mph56%30.04 "HgN/A
8:55 PM66 °FClear.3 mph52%30.04 "HgN/A
8:25 PM66 °FMild.5 mph56%30.04 "HgN/A
7:55 PM68 °FClear.6 mph46%30.04 "HgN/A
7:25 PM68 °FClear.6 mph53%30.01 "HgN/A
6:55 PM68 °FClear.6 mph49%30.01 "HgN/A
6:25 PM70 °FClear.7 mph43%30.01 "HgN/A
5:55 PM70 °FClear.5 mph43%30.01 "HgN/A
5:25 PM70 °FClear.5 mph46%30.01 "HgN/A
4:55 PM70 °FClear.5 mph46%30.01 "HgN/A
4:25 PM70 °FClear.7 mph50%30.01 "HgN/A
3:55 PM70 °FClear.7 mph50%30.01 "HgN/A
3:25 PM70 °FClear.8 mph50%30.01 "HgN/A
2:55 PM70 °FClear.7 mph46%30.01 "HgN/A
2:25 PM70 °FClear.5 mph46%30.01 "HgN/A
1:55 PM68 °FClear.6 mph43%30.01 "HgN/A
1:25 PM70 °FClear.6 mph43%30.01 "HgN/A
12:55 PM68 °FClear.3 mph43%30.01 "HgN/A
12:25 PM68 °FClear.5 mph43%30.01 "HgN/A
11:55 AM68 °FClear.1 mph46%30.01 "HgN/A
11:25 AM66 °FScattered clouds.3 mph46%30.01 "HgN/A
10:55 AM66 °FClear.2 mph52%30.01 "HgN/A
10:25 AM64 °FClear.2 mph60%30.01 "HgN/A
9:55 AM64 °FClear.1 mph56%30.01 "HgN/A
9:25 AM61 °FClear.2 mph68%30.01 "HgN/A
8:55 AM59 °FCool.2 mph68%30.01 "HgN/A
8:25 AM57 °FClear.2 mph77%30.01 "HgN/A
7:55 AM54 °FClear.2 mph88%30.01 "HgN/A
7:25 AM52 °FClear.2 mph88%30.01 "HgN/A
6:55 AM48 °FCool.3 mph94%30.01 "HgN/A
6:25 AM48 °FCool.1 mph94%29.98 "HgN/A
5:55 AM50 °FCool.3 mph88%30.01 "HgN/A
5:25 AM48 °FCool.2 mph94%30.01 "HgN/A
4:55 AM50 °FCool.3 mph88%30.01 "HgN/A
4:25 AM50 °FCool.2 mph88%30.01 "HgN/A
3:55 AM52 °FCool.5 mph82%30.01 "HgN/A
3:25 AM54 °FCool.5 mph77%30.01 "HgN/A
2:55 AM52 °FCool.5 mph82%30.01 "HgN/A
2:25 AM54 °FCool.5 mph77%30.01 "HgN/A
1:55 AM54 °FCool.5 mph77%30.04 "HgN/A
1:25 AM55 °FClear.6 mph72%30.04 "HgN/A
12:55 AM55 °FClear.5 mph72%30.04 "HgN/A
12:25 AM54 °FCool.6 mph77%30.04 "HgN/A
Weather by CustomWeather, © 2015

See weather overviewHow to use our weather pages